星链-36528(STARLINK-36528)

导读

STARLINK-36528是美国SpaceX公司星链互联网星座计划中的一颗卫星,于2026年1月14日发射入轨。星链项目旨在构建全球卫星互联网,为全球偏远、网络覆盖薄弱地区提供高速低延迟网络服务,该卫星加入后将进一步扩容星链星座,提升星座的全球服务能力与覆盖范围。

基本信息
目录编号:
67458
目录名称:
STARLINK-36528
国际标识:
2026-008P
轨道中心:
EARTH
卫星名称:
星链-36528
卫星全名:
星链-36528(STARLINK-36528)
卫星状态:
在轨 (已飞行240 天)
发射日期:
2026-01-14 UTC
国别 :
美国 (US)
星等 :
--
该卫星已列入 空间交会检测服务 Space Conjunction Data Service (SCDS) ,当前飞行风险评估等级: 高风险
轨道信息
数据来源 国际轨道数据
星历时间: 2026-09-11T08:58:10+0800
13小时前
查看轨道信息
半长轴: 6861.138km
偏心率: 0.00012
轨道倾角: 42.997°
近地点辐角 258.066°
升交点赤经 238.065°
平近点角 102.006°
近地点: 482.177km
远地点: 483.825km
周期: 94.266分钟
每日圈数: 15.275961
详细信息
固有亮度:
5
最大亮度:
2.5
卫星平台:
Starlink V1.0
覆盖范围:
全球
运营商:
太空探索技术公司
运营商所在国:
美国
制造商(研发单位):
太空探索技术公司
制造商所在国:
美国
使用方式:
暂无
卫星简介
Starlink 计划是 SpaceX 推出的全球卫星互联网项目,通过发射低轨道卫星,为全球尤其是偏远地区提供高速、低延迟的互联网服务。自 2019 年起,Starlink 已部署数千颗卫星,旨在缩小全球数字鸿沟,推动互联网普及。该项目还为军事、航空等行业提供通信支持,带来广泛经济效益。
2D轨道图
3D轨道图
轨道高度分析图
轨道倾角分析图
轨道综合分析图
查看轨道综合分析图
交会数据列表
事件ID 空间交会对象 最接近时刻(TCA) 交会距离 交会风险概率(CRP) 交会风险指数(CRI) 操作
CDM_260913-094505-613806-745821
2026-09-13T
09:45:28+0000
0.180 km
中距离
6.251001E-4 高风险 0.91
CDM_260913-214405-986306-745821
2026-09-13T
21:44:48+0000
0.487 km
远距离
1.301505E-4 高风险 0.77
CDM_260913-011904-431006-745821
OBJECT A (44310)
2026-09-13T
01:19:43+0000
0.573 km
远距离
8.388772E-5 中风险 0.73
CDM_260908-233105-306806-745821
2026-09-08T
23:31:24+0000
0.717 km
远距离
7.819299E-5 中风险 0.73
CDM_260913-130605-986306-745821
2026-09-13T
13:06:58+0000
0.701 km
远距离
4.753584E-5 中风险 0.69
CDM_260912-202505-613806-745821
2026-09-12T
20:25:10+0000
0.756 km
远距离
3.24935E-5 中风险 0.65
CDM_260912-215905-613806-745821
2026-09-12T
21:59:19+0000
1.114 km
极远距离
8.760396E-6 低风险 0.54
CDM_260913-201005-986306-745821
2026-09-13T
20:10:39+0000
2.056 km
极远距离
1.560719E-6 低风险 0.39
CDM_260912-220106-196406-745821
2026-09-12T
22:01:12+0000
1.828 km
极远距离
1.486267E-6 低风险 0.38
CDM_260913-081105-613806-745821
2026-09-13T
08:11:19+0000
2.010 km
极远距离
1.450608E-6 低风险 0.38
与全量物体交会距离演化趋势
与全量物体交会风险概率演化趋势